SL-12 DEB, 34667

Orbit data source: Space-Track

SL-12 DEB, 34667 is space debris in HEO originally from a launch on Thu, 04 Apr 1991 UTC launched from the Tyuratam Missile And Space Complex (TTMTR). Debris objects in space refer to the collection of defunct objects orbiting the Earth. Examples of debris include non-operational satellites, rocket bodies, and fragments generated from explosions, collisions, or faulty payload assembly.

Loading next visibility...
Identifier
34667, 1991-025L
Orbit
HEO
Country
Flag of CISCIS
Related business
Manufacturer
RKKE
Mission
Spacecraft
Bus & Motor
Unknown
Mass
Unknown
Launch date (UTC)
1991-04-04 (35 years ago)
Launch vehicle
Unknown
Launch site
Tyuratam Missile And Space Complex (TTMTR)
Object type
Payload
Rocket body
Debris
Shape & HBR
Unknown shape, 0.2 m
Radar Cross Section
Medium (>0.1 m² and <1 m²)

Expand to show TLE details & history
Last TLE update: 2 days ago

TLE from 2 days ago
0 SL-12 DEB
1 34667U 91025L   26171.40333419  .00000606  00000-0  29753-2 0  9997
2 34667  65.5724  87.2633 5534280 349.7542 222.5426  4.44321841273867
Epoch: 2026-06-20T09:40Z
TLE epoch observation values (Epoch: 2026-06-20T09:40:48.074Z)
Latitude
-4.48175°
Longitude
-144.52097°
Altitude
16,908.361 km
Speed
2.955 km/s
True Right ascension
17h 57m 11s
True Declination
-4° 28' 25"
Sunlit
Object was in daylight at epoch
Visualization orbit readout
Latitude
Unknown
Longitude
Unknown
Altitude
Unknown
Speed
Unknown
Apparent Right ascension
Unknown
Apparent Declination
Unknown
Sunlit
N/A
Visualization observer readout
Local Sidereal Time
07:03:46
Azimuth
Unknown
Elevation
Unknown
Doppler factor
Unknown
Orbital elements
Apogee altitude
17,898.869 km
Perigee altitude
600.9 km
Semi-major axis
15,628.022 km
Eccentricity
0.55343
Inclination
65.5724°
RAAN
87.2633°
Arg. of periapsis
349.7542°
True anomaly
195.09931°
Mean anomaly
222.5426°
Eccentric anomaly
207.76906°
Mean motion
1.11093 °/min
Orbital period
324.05 mins
BSTAR
0.0029753
Loading maneuver chart data...
Computing Atmospheric mass density...
Loading historical data...
Loading historical data...
Loading historical data...
Loading historical data...
Loading historical data...
Loading historical data...
Loading historical data...

Documentation

Showing up to 5 results
|